Time,TemperatureF,DewpointF,PressureIn,WindDirection,WindDirectionDegrees,WindSpeedMPH,WindSpeedGustMPH,Humidity,HourlyPrecipIn,Conditions,Clouds,dailyrainin,SolarRadiationWatts/m^2,SoftwareType,DateUTC
2013-07-10 00:02:00,70.0,63.0,-100.00,NW,306,6.0,13.0,79,0.00,,,0.17,0.000000,,2013-07-10 05:02:00,
2013-07-10 00:12:00,70.0,63.0,-100.00,NW,306,6.0,13.0,79,0.00,,,0.17,0.000000,,2013-07-10 05:12:00,
2013-07-10 00:42:00,66.0,60.0,-100.00,NW,308,3.0,12.0,80,0.00,,,0.17,0.000000,,2013-07-10 05:42:00,
2013-07-10 00:53:00,66.0,60.0,-100.00,NW,308,3.0,12.0,80,0.00,,,0.17,0.000000,,2013-07-10 05:53:00,
2013-07-10 01:01:00,66.0,60.0,-100.00,NW,308,3.0,12.0,80,0.00,,,0.17,0.000000,,2013-07-10 06:01:00,
2013-07-10 01:11:00,66.0,60.0,-100.00,NW,308,3.0,12.0,80,0.00,,,0.17,0.000000,,2013-07-10 06:11:00,
2013-07-10 01:42:00,65.0,60.0,-100.00,NW,313,3.0,6.0,83,0.00,,,0.17,0.000000,,2013-07-10 06:42:00,
2013-07-10 01:52:00,65.0,60.0,-100.00,NW,313,3.0,6.0,83,0.00,,,0.17,0.000000,,2013-07-10 06:52:00,
2013-07-10 02:01:00,65.0,60.0,-100.00,NW,313,3.0,6.0,83,0.00,,,0.17,0.000000,,2013-07-10 07:01:00,
2013-07-10 02:11:00,65.0,60.0,-100.00,NW,313,3.0,6.0,83,0.00,,,0.17,0.000000,,2013-07-10 07:11:00,
2013-07-10 02:43:00,64.0,57.0,-100.00,WNW,301,4.0,11.0,77,0.00,,,0.17,0.000000,,2013-07-10 07:43:00,
2013-07-10 02:53:00,64.0,57.0,-100.00,WNW,301,4.0,11.0,77,0.00,,,0.17,0.000000,,2013-07-10 07:53:00,
2013-07-10 03:01:00,64.0,57.0,-100.00,WNW,301,4.0,11.0,77,0.00,,,0.17,0.000000,,2013-07-10 08:01:00,
2013-07-10 03:11:00,64.0,57.0,-100.00,WNW,301,4.0,11.0,77,0.00,,,0.17,0.000000,,2013-07-10 08:11:00,
2013-07-10 03:42:00,62.0,55.0,-100.00,NW,306,4.0,10.0,78,0.00,,,0.17,0.000000,,2013-07-10 08:42:00,
2013-07-10 03:53:00,62.0,55.0,-100.00,NW,306,4.0,10.0,78,0.00,,,0.17,0.000000,,2013-07-10 08:53:00,
2013-07-10 04:02:00,62.0,55.0,-100.00,NW,306,4.0,10.0,78,0.00,,,0.17,0.000000,,2013-07-10 09:02:00,
2013-07-10 04:12:00,62.0,55.0,-100.00,NW,306,4.0,10.0,78,0.00,,,0.17,0.000000,,2013-07-10 09:12:00,
2013-07-10 04:43:00,59.0,54.0,-100.00,WNW,290,3.0,8.0,84,0.00,,,0.17,0.000000,,2013-07-10 09:43:00,
2013-07-10 04:53:00,59.0,54.0,-100.00,WNW,290,3.0,8.0,84,0.00,,,0.17,0.000000,,2013-07-10 09:53:00,
2013-07-10 05:01:00,59.0,54.0,-100.00,WNW,290,3.0,8.0,84,0.00,,,0.17,0.000000,,2013-07-10 10:01:00,
2013-07-10 05:13:00,59.0,54.0,-100.00,WNW,290,3.0,8.0,84,0.00,,,0.17,0.000000,,2013-07-10 10:13:00,
2013-07-10 05:51:00,-999.0,-99.9,-100.00,West,265,1.0,5.0,-999,-99.99,,,-99.99,0.000000,,2013-07-10 10:51:00,
2013-07-10 06:00:00,-999.0,-99.9,-100.00,West,265,1.0,5.0,-999,-99.99,,,-99.99,0.000000,,2013-07-10 11:00:00,
2013-07-10 06:11:00,55.0,53.0,-100.00,West,265,1.0,5.0,92,0.00,,,0.17,0.000000,,2013-07-10 11:11:00,
2013-07-10 09:43:00,68.0,54.0,-100.00,NW,323,8.0,15.0,62,-99.99,,,0.17,440.000000,,2013-07-10 14:43:00,
2013-07-10 09:53:00,68.0,54.0,-100.00,NW,323,8.0,15.0,62,-99.99,,,0.17,440.000000,,2013-07-10 14:53:00,
2013-07-10 10:01:00,68.0,54.0,-100.00,NW,323,8.0,15.0,62,-99.99,,,0.17,440.000000,,2013-07-10 15:01:00,
2013-07-10 10:11:00,68.0,54.0,-100.00,NW,323,8.0,15.0,62,-99.99,,,0.17,440.000000,,2013-07-10 15:11:00,
2013-07-10 10:43:00,70.0,54.0,-100.00,NW,322,7.0,17.0,57,0.00,,,0.09,597.000000,,2013-07-10 15:43:00,
2013-07-10 10:52:00,70.0,54.0,-100.00,NW,322,7.0,17.0,57,0.00,,,0.09,597.000000,,2013-07-10 15:52:00,
2013-07-10 11:01:00,70.0,54.0,-100.00,NW,322,7.0,17.0,57,0.00,,,0.09,597.000000,,2013-07-10 16:01:00,
2013-07-10 11:11:00,70.0,54.0,-100.00,NW,322,7.0,17.0,57,0.00,,,0.09,597.000000,,2013-07-10 16:11:00,
2013-07-10 11:44:00,72.0,53.0,-100.00,NNW,327,7.0,17.0,52,0.00,,,0.02,710.000000,,2013-07-10 16:44:00,
2013-07-10 11:53:00,72.0,53.0,-100.00,NNW,327,7.0,17.0,52,0.00,,,0.02,710.000000,,2013-07-10 16:53:00,
2013-07-10 12:02:00,72.0,53.0,-100.00,NNW,327,7.0,17.0,52,0.00,,,0.02,710.000000,,2013-07-10 17:02:00,
2013-07-10 12:11:00,72.0,53.0,-100.00,NNW,327,7.0,17.0,52,0.00,,,0.02,710.000000,,2013-07-10 17:11:00,
2013-07-10 12:43:00,74.0,51.0,-100.00,NNW,339,8.0,20.0,45,0.00,,,0.02,718.000000,,2013-07-10 17:43:00,
2013-07-10 12:53:00,74.0,51.0,-100.00,NNW,339,8.0,20.0,45,0.00,,,0.02,718.000000,,2013-07-10 17:53:00,
2013-07-10 13:02:00,74.0,51.0,-100.00,NNW,339,8.0,20.0,45,0.00,,,0.02,718.000000,,2013-07-10 18:02:00,
2013-07-10 13:11:00,74.0,51.0,-100.00,NNW,339,8.0,20.0,45,0.00,,,0.02,718.000000,,2013-07-10 18:11:00,
2013-07-10 13:44:00,76.0,51.0,-100.00,NNW,334,9.0,17.0,41,0.00,,,0.01,812.000000,,2013-07-10 18:44:00,
2013-07-10 13:53:00,76.0,51.0,-100.00,NNW,334,9.0,17.0,41,0.00,,,0.01,812.000000,,2013-07-10 18:53:00,
2013-07-10 14:01:00,76.0,51.0,-100.00,NNW,334,9.0,17.0,41,0.00,,,0.01,812.000000,,2013-07-10 19:01:00,
2013-07-10 14:11:00,76.0,51.0,-100.00,NNW,334,9.0,17.0,41,0.00,,,0.01,812.000000,,2013-07-10 19:11:00,
2013-07-10 14:42:00,77.0,49.0,-100.00,NW,321,10.0,18.0,38,0.00,,,0.01,844.000000,,2013-07-10 19:42:00,
2013-07-10 14:53:00,77.0,49.0,-100.00,NW,321,10.0,18.0,38,0.00,,,0.01,844.000000,,2013-07-10 19:53:00,
2013-07-10 15:01:00,77.0,49.0,-100.00,NW,321,10.0,18.0,38,0.00,,,0.01,844.000000,,2013-07-10 20:01:00,
2013-07-10 15:11:00,77.0,49.0,-100.00,NW,321,10.0,18.0,38,0.00,,,0.01,844.000000,,2013-07-10 20:11:00,
2013-07-10 15:43:00,80.0,52.0,-100.00,NNW,329,6.0,16.0,38,0.00,,,0.00,818.000000,,2013-07-10 20:43:00,
2013-07-10 15:52:00,80.0,52.0,-100.00,NNW,329,6.0,16.0,38,0.00,,,0.00,818.000000,,2013-07-10 20:52:00,
2013-07-10 16:01:00,80.0,52.0,-100.00,NNW,329,6.0,16.0,38,0.00,,,0.00,818.000000,,2013-07-10 21:01:00,
2013-07-10 16:11:00,80.0,52.0,-100.00,NNW,329,6.0,16.0,38,0.00,,,0.00,818.000000,,2013-07-10 21:11:00,
2013-07-10 16:42:00,80.0,52.0,-100.00,WNW,293,6.0,14.0,38,0.00,,,0.00,737.000000,,2013-07-10 21:42:00,
2013-07-10 16:52:00,80.0,52.0,-100.00,WNW,293,6.0,14.0,38,0.00,,,0.00,737.000000,,2013-07-10 21:52:00,
2013-07-10 17:01:00,80.0,52.0,-100.00,WNW,293,6.0,14.0,38,0.00,,,0.00,737.000000,,2013-07-10 22:01:00,
2013-07-10 17:11:00,80.0,52.0,-100.00,WNW,293,6.0,14.0,38,0.00,,,0.00,737.000000,,2013-07-10 22:11:00,
2013-07-10 17:43:00,79.0,52.0,-100.00,NW,320,6.0,13.0,39,0.00,,,0.00,578.000000,,2013-07-10 22:43:00,
2013-07-10 17:53:00,79.0,52.0,-100.00,NW,320,6.0,13.0,39,0.00,,,0.00,578.000000,,2013-07-10 22:53:00,
2013-07-10 18:01:00,79.0,52.0,-100.00,NW,320,6.0,13.0,39,0.00,,,0.00,578.000000,,2013-07-10 23:01:00,
2013-07-10 18:11:00,79.0,52.0,-100.00,NW,320,6.0,13.0,39,0.00,,,0.00,578.000000,,2013-07-10 23:11:00,
2013-07-10 18:52:00,79.0,53.0,-100.00,WNW,299,4.0,12.0,41,0.00,,,0.00,421.000000,,2013-07-10 23:52:00,
2013-07-10 19:01:00,79.0,53.0,-100.00,WNW,299,4.0,12.0,41,0.00,,,0.00,421.000000,,2013-07-11 00:01:00,
2013-07-10 19:11:00,79.0,53.0,-100.00,WNW,299,4.0,12.0,41,0.00,,,0.00,421.000000,,2013-07-11 00:11:00,
2013-07-10 19:43:00,78.0,55.0,-100.00,WNW,289,2.0,10.0,45,0.00,,,0.00,250.000000,,2013-07-11 00:43:00,
2013-07-10 19:52:00,78.0,55.0,-100.00,WNW,289,2.0,10.0,45,0.00,,,0.00,250.000000,,2013-07-11 00:52:00,
2013-07-10 20:01:00,78.0,55.0,-100.00,WNW,289,2.0,10.0,45,0.00,,,0.00,250.000000,,2013-07-11 01:01:00,
2013-07-10 20:11:00,78.0,55.0,-100.00,WNW,289,2.0,10.0,45,0.00,,,0.00,250.000000,,2013-07-11 01:11:00,
2013-07-10 20:43:00,74.0,61.0,-100.00,West,274,0.0,5.0,63,0.00,,,0.00,108.000000,,2013-07-11 01:43:00,
2013-07-10 20:52:00,74.0,61.0,-100.00,West,274,0.0,5.0,63,0.00,,,0.00,108.000000,,2013-07-11 01:52:00,
2013-07-10 21:02:00,74.0,61.0,-100.00,West,274,0.0,5.0,63,0.00,,,0.00,108.000000,,2013-07-11 02:02:00,
2013-07-10 21:11:00,74.0,61.0,-100.00,West,274,0.0,5.0,63,0.00,,,0.00,108.000000,,2013-07-11 02:11:00,
2013-07-10 21:44:00,66.0,62.0,-100.00,NW,314,0.0,2.0,87,0.00,,,0.00,17.000000,,2013-07-11 02:44:00,
2013-07-10 21:53:00,66.0,62.0,-100.00,NW,314,0.0,2.0,87,0.00,,,0.00,17.000000,,2013-07-11 02:53:00,
2013-07-10 22:02:00,66.0,62.0,-100.00,NW,314,0.0,2.0,87,0.00,,,0.00,17.000000,,2013-07-11 03:02:00,
2013-07-10 22:11:00,66.0,62.0,-100.00,NW,314,0.0,2.0,87,0.00,,,0.00,17.000000,,2013-07-11 03:11:00,
2013-07-10 22:42:00,62.0,59.0,-100.00,North,7,1.0,9.0,91,0.00,,,0.00,0.000000,,2013-07-11 03:42:00,
2013-07-10 22:53:00,62.0,59.0,-100.00,North,7,1.0,9.0,91,0.00,,,0.00,0.000000,,2013-07-11 03:53:00,
2013-07-10 23:01:00,62.0,59.0,-100.00,North,7,1.0,9.0,91,0.00,,,0.00,0.000000,,2013-07-11 04:01:00,
2013-07-10 23:12:00,62.0,59.0,-100.00,North,7,1.0,9.0,91,0.00,,,0.00,0.000000,,2013-07-11 04:12:00,
2013-07-10 23:43:00,59.0,57.0,-100.00,SSW,203,0.0,1.0,94,0.00,,,0.00,0.000000,,2013-07-11 04:43:00,
2013-07-10 23:53:00,59.0,57.0,-100.00,SSW,203,0.0,1.0,94,0.00,,,0.00,0.000000,,2013-07-11 04:53:00,